This demonstration page uses our WeatherBlox Daily Observations layout. Learn more.

Left ArrowRight Arrow

39.01783, -85.05884

Hourly Observations for December 21, 2016

Temp ( °F °C ) Dew Point ( °F °C ) Humidity (%) Winds ( mph kmh ) Pressure ( in mb ) Visibility ( mi km ) Precip ( " mm )
12:52 am 00:52 Mostly Clear 27 -2.8 24 -4.4 89 89 SSW 5 7 30.27 1025 8 13 N/A
1:52 am 01:52 Clear 26 -3.3 23 -5 88 88 SW 6 9 30.27 1025 8 13 N/A
2:52 am 02:52 Mostly Cloudy 26 -3.3 24 -4.4 92 92 SSW 5 7 30.27 1025 7 11 N/A
3:52 am 03:52 Cloudy with Mist and Fog 24 -4.4 22 -5.6 91 91 SSW 5 7 30.29 1026 5 8 N/A
4:52 am 04:52 Cloudy with Mist and Fog 24 -4.4 23 -5 96 96 S 5 7 30.27 1025 5 8 N/A
5:52 am 05:52 Cloudy with Mist and Fog 24 -4.4 23 -5 96 96 SSW 7 11 30.27 1025 5 8 N/A
6:52 am 06:52 Partly Cloudy with Patchy Fog 23 -5 21 -6.1 92 92 SSW 7 11 30.28 1025 5 8 N/A
7:43 am 07:43 Mostly Cloudy with Patchy Fog 23 -5 21 -6.1 92 92 SSW 5 7 30.36 1028 3 5 N/A
7:52 am 07:52 Mostly Cloudy with Patchy Fog 23 -5 22 -5.6 96 96 SSW 5 7 30.29 1026 3 5 N/A
8:30 am 08:30 Mostly Cloudy with Patchy Fog 21 -6 21 -6 100 100 S 7 11 30.36 1028 2 3 N/A
8:40 am 08:40 Mostly Cloudy with Patchy Fog 23 -5 21 -6 93 93 SSW 7 11 30.36 1028 1 1 N/A
8:52 am 08:52 Mostly Cloudy with Patchy Fog 23 -5 22 -5.6 96 96 SSW 7 11 30.29 1026 0 0 N/A
8:59 am 08:59 Cloudy with Patchy Fog 23 -5 22 -5.6 96 96 SSW 7 11 30.36 1028 0 0 N/A
9:19 am 09:19 Mostly Cloudy with Patchy Fog 23 -5 23 -5 100 100 SSW 7 11 30.36 1028 0 0 N/A
9:52 am 09:52 Cloudy with Mist and Fog 25 -3.9 24 -4.4 96 96 S 8 13 30.28 1025 1 1 N/A
10:08 am 10:08 Mostly Cloudy with Mist and Fog 25 -3.9 25 -3.9 100 100 S 6 9 30.30 1026 1 2 N/A
10:52 am 10:52 Mostly Cloudy with Mist and Fog 28 -2.2 27 -2.8 96 96 S 6 9 30.27 1025 3 5 N/A
11:52 am 11:52 Mostly Cloudy 33 0.6 28 -2.2 82 82 S 7 11 30.24 1024 8 13 N/A
12:52 pm 12:52 Cloudy 35 1.7 27 -2.8 72 72 S 8 13 30.22 1023 9 14 N/A
1:52 pm 13:52 Mostly Cloudy 37 2.8 27 -2.8 67 67 S 9 15 30.18 1022 9 14 N/A
2:52 pm 14:52 Mostly Cloudy 38 3.3 26 -3.3 62 62 S 13 20 30.14 1021 10 16 N/A
3:52 pm 15:52 Mostly Cloudy 39 3.9 25 -3.9 57 57 S 10 17 30.14 1021 10 16 N/A
4:52 pm 16:52 Mostly Cloudy 40 4.4 24 -4.4 53 53 S 8 13 30.13 1020 10 16 N/A
5:52 pm 17:52 Cloudy 39 3.9 27 -2.8 62 62 S 6 9 30.12 1020 10 16 N/A
6:52 pm 18:52 Mostly Cloudy 37 2.8 29 -1.7 73 73 S 6 9 30.11 1020 10 16 N/A
7:52 pm 19:52 Cloudy 39 3.9 27 -2.8 62 62 S 6 9 30.09 1019 10 16 N/A
8:52 pm 20:52 Mostly Clear 37 2.8 27 -2.8 67 67 SSW 6 9 30.07 1018 10 16 N/A
9:52 pm 21:52 Mostly Cloudy 38 3.3 28 -2.2 68 68 SSW 7 11 30.06 1018 10 16 N/A
10:52 pm 22:52 Partly Cloudy 39 3.9 28 -2.2 65 65 SW 10 17 30.06 1018 10 16 N/A
11:52 pm 23:52 Mostly Clear 39 3.9 28 -2.2 65 65 WSW 9 15 30.05 1018 10 16 N/A

Powered by AerisWeather